Terminal Aerodrome Forecast
Issued by NWS

Home | Current Version | Previous Version | Graphics & Text | Print | Product List | Glossary On
Versions: 1 2 3 4 5 6 7 8 9 10 11 12 13
000
FTUS43 KIWX 250520
TAFSBN
TAF
KSBN 250520Z 2506/2606 29006KT P6SM SCT250
      TEMPO 2506/2508 BKN060
     FM251300 29012G22KT P6SM SCT040=

USA.gov is the U.S. government's official web portal to all federal, state and local government web resources and services.